Location: Bégole
(43.1574°N, 0.3291°E)
Time: 13:05:12
(UTC+00:00)

YAOGAN 3 - Pass Details

Date: 28 January 2023
Orbit: 621 x 622 km, 97.9° (Epoch: 20 March)

Event Time Altitude Azimuth Distance (km) Brightness Sun altitude
Rises 18:24:05 0° 164° (SSE) 2,892 8.0 -14.5°
Reaches altitude 10° 18:26:16 10° 164° (SSE) 1,990 7.1 -14.9°
Maximum altitude 18:30:36 85° 78° (ENE) 633 4.5 -15.7°
Drops below altitude 10° 18:34:58 10° 348° (NNW) 2,007 7.2 -16.4°
Sets 18:37:10 0° 348° (NNW) 2,918 8.1 -16.8°
